Terminal Aerodrome Forecast
Issued by NWS Memphis, TN

Home | Current Version | Previous Version | Text Only | Print | Product List | Glossary On
Versions: 1 2 3 4 5 6 7 8 9 10 11 12 13 14 15 16 17
000
FTUS44 KMEG 310500
TAFMKL
TAF
KMKL 310531Z 3106/0106 00000KT P6SM OVC080
      TEMPO 3106/3107 -RA BKN060
     FM311200 33005KT P6SM OVC050
     FM311500 35015G28KT P6SM SCT050 BKN100=

USA.gov is the U.S. government's official web portal to all federal, state and local government web resources and services.